| time (UTC) | temp F | wind direction | speed knots | gust knots | rain 1hr in | rain 24hr in | rain mn in | humidity % | barometer mb |
| 20260504081520 | 51 | 222 | 5.2 | 12.2 | 0.00 | 0.00 | 0.00 | 73 | 1015.7 |
| 20260504081022 | 51 | 222 | 4.3 | 8.7 | 0.00 | 0.00 | 0.00 | 73 | 1015.7 |
| 20260504080519 | 51 | 236 | 4.3 | 8.7 | 0.00 | 0.00 | 0.00 | 73 | 1015.7 |
| 20260504050556 | 54 | 236 | 3.5 | 7.8 | 0.00 | 0.00 | 0.00 | 67 | 1015.3 |
| 20260504050131 | 54 | 230 | 4.3 | 8.7 | 0.00 | 0.00 | 0.00 | 66 | 1015.3 |
| 20260504045554 | 54 | 221 | 4.3 | 8.7 | 0.00 | 0.00 | 0.00 | 67 | 1015.4 |
| 20260504045053 | 53 | 233 | 4.3 | 8.7 | 0.00 | 0.00 | 0.00 | 67 | 1015.3 |
| 20260504044555 | 53 | 221 | 3.5 | 7.8 | 0.00 | 0.00 | 0.00 | 67 | 1015.3 |
| 20260504044052 | 53 | 217 | 3.5 | 7.0 | 0.00 | 0.00 | 0.00 | 67 | 1015.2 |
| 20260504043552 | 53 | 219 | 2.6 | 6.1 | 0.00 | 0.00 | 0.00 | 67 | 1015.2 |
| 20260504043058 | 53 | 253 | 2.6 | 7.0 | 0.00 | 0.00 | 0.00 | 68 | 1015.2 |
| 20260504042551 | 54 | 233 | 3.5 | 6.1 | 0.00 | 0.00 | 0.00 | 67 | 1015.1 |
| 20260504042052 | 54 | 211 | 3.5 | 6.1 | 0.00 | 0.00 | 0.00 | 67 | 1015.1 |
| 20260504041548 | 53 | 236 | 2.6 | 7.8 | 0.00 | 0.00 | 0.00 | 67 | 1015.1 |
| 20260504041047 | 53 | 232 | 2.6 | 7.0 | 0.00 | 0.00 | 0.00 | 68 | 1015.1 |
| 20260504040546 | 53 | 243 | 2.6 | 7.0 | 0.00 | 0.00 | 0.00 | 68 | 1015.0 |
| 20260504040044 | 53 | 218 | 2.6 | 6.1 | 0.00 | 0.00 | 0.00 | 68 | 1015.0 |
| 20260504035544 | 52 | 203 | 3.5 | 6.1 | 0.00 | 0.00 | 0.00 | 67 | 1015.0 |
| 20260504035044 | 52 | 217 | 1.7 | 6.1 | 0.00 | 0.00 | 0.00 | 67 | 1015.0 |
| 20260504034549 | 52 | 221 | 2.6 | 6.1 | 0.00 | 0.00 | 0.00 | 69 | 1015.0 |
| 20260504034042 | 52 | 217 | 1.7 | 4.3 | 0.00 | 0.00 | 0.00 | 69 | 1014.9 |
| 20260504033542 | 52 | 234 | 1.7 | 6.1 | 0.00 | 0.00 | 0.00 | 67 | 1014.8 |
| 20260504033045 | 53 | 214 | 2.6 | 5.2 | 0.00 | 0.00 | 0.00 | 65 | 1014.8 |
| 20260504032543 | 53 | 215 | 1.7 | 5.2 | 0.00 | 0.00 | 0.00 | 66 | 1014.8 |
| 20260504032041 | 53 | 236 | 1.7 | 5.2 | 0.00 | 0.00 | 0.00 | 66 | 1014.8 |
| 20260504031601 | 53 | 224 | 1.7 | 7.0 | 0.00 | 0.00 | 0.00 | 68 | 1014.8 |
| 20260504031041 | 53 | 213 | 2.6 | 7.0 | 0.00 | 0.00 | 0.00 | 68 | 1014.8 |
| 20260504030541 | 51 | 236 | 2.6 | 6.1 | 0.00 | 0.00 | 0.00 | 72 | 1014.8 |
| 20260504030041 | 51 | 252 | 0.0 | 3.5 | 0.00 | 0.00 | 0.00 | 72 | 1014.7 |
| 20260504025539 | 51 | 229 | 0.9 | 3.5 | 0.00 | 0.00 | 0.00 | 73 | 1014.7 |
| 20260504025039 | 51 | 281 | 0.0 | 3.5 | 0.00 | 0.00 | 0.00 | 73 | 1014.7 |
| 20260504024542 | 51 | 235 | 0.9 | 3.5 | 0.00 | 0.00 | 0.00 | 72 | 1014.7 |
| 20260504024039 | 51 | 239 | 0.0 | 1.7 | 0.00 | 0.00 | 0.00 | 71 | 1014.7 |
| 20260504023539 | 52 | 225 | 0.9 | 2.6 | 0.00 | 0.00 | 0.00 | 71 | 1014.7 |
| 20260504023039 | 52 | 245 | 0.0 | 3.5 | 0.00 | 0.00 | 0.00 | 69 | 1014.7 |
| 20260504022542 | 52 | 264 | 0.9 | 3.5 | 0.00 | 0.00 | 0.00 | 68 | 1014.7 |
| 20260504022039 | 53 | 292 | 0.9 | 5.2 | 0.00 | 0.00 | 0.00 | 67 | 1014.7 |
| 20260504021538 | 53 | 275 | 0.9 | 4.3 | 0.00 | 0.00 | 0.00 | 66 | 1014.7 |
| 20260504021037 | 53 | 266 | 1.7 | 4.3 | 0.00 | 0.00 | 0.00 | 66 | 1014.7 |
| 20260504020538 | 53 | 286 | 0.9 | 6.1 | 0.00 | 0.00 | 0.00 | 66 | 1014.7 |
| 20260504020039 | 52 | 242 | 0.9 | 6.1 | 0.00 | 0.00 | 0.00 | 66 | 1014.6 |
| 20260504015537 | 52 | 243 | 0.9 | 5.2 | 0.00 | 0.00 | 0.00 | 66 | 1014.6 |
| 20260504015035 | 52 | 223 | 0.9 | 5.2 | 0.00 | 0.00 | 0.00 | 68 | 1014.6 |
| 20260504014536 | 52 | 248 | 0.9 | 3.5 | 0.00 | 0.00 | 0.00 | 68 | 1014.6 |
| 20260504014035 | 52 | 250 | 0.9 | 3.5 | 0.00 | 0.00 | 0.00 | 68 | 1014.6 |
| 20260504013637 | 52 | 238 | 0.9 | 3.5 | 0.00 | 0.00 | 0.00 | 67 | 1014.6 |
| 20260504013036 | 52 | 217 | 0.9 | 2.6 | 0.00 | 0.00 | 0.00 | 66 | 1014.5 |
| 20260504012534 | 52 | 267 | 0.0 | 2.6 | 0.00 | 0.00 | 0.00 | 64 | 1014.5 |
| 20260504012033 | 52 | 234 | 0.0 | 1.7 | 0.00 | 0.00 | 0.00 | 63 | 1014.4 |
| 20260504011532 | 52 | 272 | 0.0 | 2.6 | 0.00 | 0.00 | 0.00 | 62 | 1014.4 |
| 20260504011031 | 53 | 247 | 0.9 | 2.6 | 0.00 | 0.00 | 0.00 | 61 | 1014.4 |
| 20260504010532 | 53 | 262 | 0.0 | 1.7 | 0.00 | 0.00 | 0.00 | 59 | 1014.2 |
| 20260504010030 | 53 | 248 | 0.0 | 1.7 | 0.00 | 0.00 | 0.00 | 58 | 1014.2 |
| 20260504005530 | 54 | 262 | 0.9 | 2.6 | 0.00 | 0.00 | 0.00 | 56 | 1014.1 |
| 20260504005029 | 54 | 236 | 0.9 | 2.6 | 0.00 | 0.00 | 0.00 | 54 | 1014.1 |
| 20260504004530 | 54 | 269 | 0.9 | 3.5 | 0.00 | 0.00 | 0.00 | 53 | 1014.0 |
| 20260504004029 | 54 | 234 | 0.9 | 3.5 | 0.00 | 0.00 | 0.00 | 52 | 1013.9 |
| 20260504003529 | 54 | 284 | 0.9 | 4.3 | 0.00 | 0.00 | 0.00 | 52 | 1013.7 |
| 20260504003028 | 54 | 285 | 0.9 | 4.3 | 0.00 | 0.00 | 0.00 | 52 | 1013.7 |
| 20260504002528 | 54 | 301 | 0.9 | 2.6 | 0.00 | 0.00 | 0.00 | 52 | 1013.7 |
| 20260504002028 | 55 | 246 | 0.9 | 4.3 | 0.00 | 0.00 | 0.00 | 52 | 1013.6 |
| 20260504001528 | 55 | 232 | 0.9 | 6.1 | 0.00 | 0.00 | 0.00 | 51 | 1013.6 |
| 20260504001028 | 55 | 240 | 0.9 | 6.1 | 0.00 | 0.00 | 0.00 | 50 | 1013.5 |
| 20260504000528 | 55 | 277 | 0.9 | 3.5 | 0.00 | 0.00 | 0.00 | 48 | 1013.5 |
| 20260504000027 | 55 | 271 | 0.9 | 5.2 | 0.00 | 0.00 | 0.00 | 46 | 1013.5 |
| 20260503235527 | 56 | 243 | 0.9 | 6.1 | 0.00 | 0.00 | 0.00 | 45 | 1013.4 |
| 20260503235027 | 56 | 254 | 1.7 | 6.1 | 0.00 | 0.00 | 0.00 | 44 | 1013.5 |
| 20260503234530 | 56 | 285 | 1.7 | 6.1 | 0.00 | 0.00 | 0.00 | 44 | 1013.4 |
| 20260503234031 | 56 | 219 | 1.7 | 6.1 | 0.00 | 0.00 | 0.00 | 43 | 1013.4 |
| 20260503233528 | 57 | 227 | 1.7 | 7.0 | 0.00 | 0.00 | 0.00 | 42 | 1013.4 |
| 20260503233026 | 57 | 250 | 1.7 | 7.0 | 0.00 | 0.00 | 0.00 | 42 | 1013.4 |
| 20260503232527 | 57 | 309 | 3.5 | 7.0 | 0.00 | 0.00 | 0.00 | 41 | 1013.3 |
| 20260503232026 | 57 | 279 | 2.6 | 10.4 | 0.00 | 0.00 | 0.00 | 40 | 1013.2 |
| 20260503231536 | 57 | 227 | 1.7 | 10.4 | 0.00 | 0.00 | 0.00 | 39 | 1013.2 |
| 20260503231026 | 58 | 240 | 2.6 | 9.6 | 0.00 | 0.00 | 0.00 | 38 | 1013.2 |
| 20260503230526 | 58 | 227 | 3.5 | 9.6 | 0.00 | 0.00 | 0.00 | 37 | 1013.2 |
| 20260503230025 | 58 | 221 | 1.7 | 11.3 | 0.00 | 0.00 | 0.00 | 37 | 1013.2 |
| 20260503225529 | 59 | 262 | 5.2 | 12.2 | 0.00 | 0.00 | 0.00 | 35 | 1013.2 |
| 20260503225027 | 59 | 30 | 2.6 | 11.3 | 0.00 | 0.00 | 0.00 | 34 | 1013.2 |
| 20260503224524 | 59 | 274 | 4.3 | 11.3 | 0.00 | 0.00 | 0.00 | 34 | 1013.1 |
| 20260503224027 | 59 | 232 | 1.7 | 8.7 | 0.00 | 0.00 | 0.00 | 34 | 1013.1 |
| 20260503223524 | 59 | 318 | 4.3 | 10.4 | 0.00 | 0.00 | 0.00 | 35 | 1013.1 |
| 20260503223026 | 59 | 301 | 3.5 | 12.2 | 0.00 | 0.00 | 0.00 | 34 | 1013.1 |
| 20260503222524 | 59 | 271 | 4.3 | 12.2 | 0.00 | 0.00 | 0.00 | 34 | 1013.0 |
| 20260503222023 | 59 | 282 | 4.3 | 13.9 | 0.00 | 0.00 | 0.00 | 35 | 1012.9 |
| 20260503221523 | 59 | 297 | 1.7 | 13.9 | 0.00 | 0.00 | 0.00 | 35 | 1013.1 |
| 20260503221023 | 59 | 110 | 5.2 | 11.3 | 0.00 | 0.00 | 0.00 | 33 | 1013.1 |
| 20260503220526 | 59 | 37 | 4.3 | 13.9 | 0.00 | 0.00 | 0.00 | 34 | 1013.0 |
| 20260503220031 | 59 | 261 | 4.3 | 13.0 | 0.00 | 0.00 | 0.00 | 34 | 1013.0 |
| 20260503215521 | 59 | 259 | 6.1 | 19.1 | 0.00 | 0.00 | 0.00 | 34 | 1013.0 |
| 20260503215022 | 59 | 274 | 5.2 | 19.1 | 0.00 | 0.00 | 0.00 | 34 | 1013.1 |
| 20260503214522 | 59 | 304 | 7.8 | 15.6 | 0.00 | 0.00 | 0.00 | 33 | 1012.9 |
| 20260503214024 | 60 | 355 | 4.3 | 13.9 | 0.00 | 0.00 | 0.00 | 33 | 1012.8 |
| 20260503213521 | 59 | 286 | 6.1 | 15.6 | 0.00 | 0.00 | 0.00 | 33 | 1012.9 |
| 20260503213027 | 59 | 9 | 6.1 | 15.6 | 0.00 | 0.00 | 0.00 | 35 | 1012.7 |
| 20260503212522 | 59 | 262 | 4.3 | 13.0 | 0.00 | 0.00 | 0.00 | 34 | 1012.7 |
| 20260503212020 | 59 | 222 | 3.5 | 13.0 | 0.00 | 0.00 | 0.00 | 34 | 1012.7 |
| 20260503211523 | 60 | 71 | 4.3 | 13.0 | 0.00 | 0.00 | 0.00 | 32 | 1012.7 |
| 20260503211023 | 60 | 293 | 2.6 | 12.2 | 0.00 | 0.00 | 0.00 | 33 | 1012.6 |
| 20260503210520 | 59 | 42 | 4.3 | 13.0 | 0.00 | 0.00 | 0.00 | 33 | 1012.6 |
| 20260503210020 | 59 | 207 | 4.3 | 13.9 | 0.00 | 0.00 | 0.00 | 33 | 1012.7 |
| 20260503205521 | 60 | 274 | 5.2 | 13.9 | 0.00 | 0.00 | 0.00 | 33 | 1012.7 |
| 20260503205024 | 60 | 240 | 3.5 | 13.0 | 0.00 | 0.00 | 0.00 | 33 | 1012.6 |
| 20260503204520 | 60 | 342 | 6.1 | 13.0 | 0.00 | 0.00 | 0.00 | 34 | 1012.7 |
| 20260503204019 | 60 | 340 | 4.3 | 13.0 | 0.00 | 0.00 | 0.00 | 34 | 1012.8 |
| 20260503203518 | 60 | 312 | 1.7 | 12.2 | 0.00 | 0.00 | 0.00 | 36 | 1012.8 |
| 20260503203023 | 59 | 212 | 2.6 | 14.8 | 0.00 | 0.00 | 0.00 | 35 | 1012.7 |
| 20260503202517 | 59 | 130 | 6.1 | 14.8 | 0.00 | 0.00 | 0.00 | 32 | 1012.8 |
| 20260503202017 | 59 | 262 | 6.1 | 14.8 | 0.00 | 0.00 | 0.00 | 33 | 1012.9 |
| 20260503201523 | 59 | 314 | 4.3 | 14.8 | 0.00 | 0.00 | 0.00 | 33 | 1012.8 |
| 20260503201016 | 59 | 267 | 5.2 | 14.8 | 0.00 | 0.00 | 0.00 | 33 | 1012.8 |
| 20260503200516 | 59 | 262 | 5.2 | 11.3 | 0.00 | 0.00 | 0.00 | 33 | 1012.8 |
| 20260503200016 | 59 | 126 | 2.6 | 12.2 | 0.00 | 0.00 | 0.00 | 33 | 1012.9 |
| 20260503195515 | 59 | 340 | 5.2 | 13.0 | 0.00 | 0.00 | 0.00 | 33 | 1012.9 |
| 20260503195015 | 59 | 291 | 3.5 | 13.0 | 0.00 | 0.00 | 0.00 | 37 | 1012.8 |
| 20260503194522 | 59 | 204 | 5.2 | 12.2 | 0.00 | 0.00 | 0.00 | 35 | 1012.8 |
| 20260503194014 | 59 | 44 | 4.3 | 10.4 | 0.00 | 0.00 | 0.00 | 33 | 1012.7 |
| 20260503193514 | 59 | 259 | 4.3 | 13.0 | 0.00 | 0.00 | 0.00 | 35 | 1012.9 |
| 20260503193012 | 58 | 290 | 3.5 | 14.8 | 0.00 | 0.00 | 0.00 | 36 | 1012.8 |
| 20260503192512 | 58 | 5 | 6.1 | 14.8 | 0.00 | 0.00 | 0.00 | 34 | 1013.0 |
| 20260503192011 | 58 | 283 | 4.3 | 13.9 | 0.00 | 0.00 | 0.00 | 35 | 1012.9 |
| 20260503191512 | 58 | 28 | 5.2 | 13.9 | 0.00 | 0.00 | 0.00 | 34 | 1013.1 |
| 20260503191016 | 59 | 348 | 2.6 | 11.3 | 0.00 | 0.00 | 0.00 | 35 | 1013.1 |
| 20260503190510 | 58 | 49 | 2.6 | 7.8 | 0.00 | 0.00 | 0.00 | 35 | 1013.1 |
| 20260503190012 | 57 | 279 | 1.7 | 11.3 | 0.00 | 0.00 | 0.00 | 39 | 1013.2 |
| 20260503185511 | 56 | 355 | 3.5 | 16.5 | 0.00 | 0.00 | 0.00 | 37 | 1013.2 |
| 20260503185008 | 57 | 28 | 6.1 | 16.5 | 0.00 | 0.00 | 0.00 | 35 | 1013.2 |
| 20260503184509 | 57 | 309 | 5.2 | 14.8 | 0.00 | 0.00 | 0.00 | 37 | 1013.4 |
| 20260503184010 | 57 | 5 | 3.5 | 15.6 | 0.00 | 0.00 | 0.00 | 38 | 1013.4 |
| 20260503183508 | 57 | 285 | 6.1 | 15.6 | 0.00 | 0.00 | 0.00 | 36 | 1013.4 |
| 20260503183006 | 57 | 20 | 3.5 | 13.9 | 0.00 | 0.00 | 0.00 | 38 | 1013.4 |
| 20260503182509 | 57 | 302 | 3.5 | 12.2 | 0.00 | 0.00 | 0.00 | 38 | 1013.3 |
| 20260503182006 | 57 | 231 | 3.5 | 13.0 | 0.00 | 0.00 | 0.00 | 37 | 1013.4 |
| 20260503181507 | 57 | 299 | 4.3 | 13.0 | 0.00 | 0.00 | 0.00 | 37 | 1013.5 |
| 20260503181006 | 57 | 319 | 2.6 | 13.0 | 0.00 | 0.00 | 0.00 | 39 | 1013.5 |
| 20260503180504 | 56 | 23 | 3.5 | 13.9 | 0.00 | 0.00 | 0.00 | 39 | 1013.3 |
| 20260503180009 | 55 | 5 | 0.9 | 13.9 | 0.00 | 0.00 | 0.00 | 41 | 1013.4 |
| 20260503175502 | 55 | 290 | 2.6 | 12.2 | 0.00 | 0.00 | 0.00 | 40 | 1013.4 |
| 20260503175002 | 55 | 38 | 5.2 | 12.2 | 0.00 | 0.00 | 0.00 | 40 | 1013.4 |
| 20260503174505 | 55 | 324 | 4.3 | 13.9 | 0.00 | 0.00 | 0.00 | 40 | 1013.2 |
| 20260503174005 | 56 | 262 | 7.0 | 13.9 | 0.00 | 0.00 | 0.00 | 38 | 1013.4 |
| 20260503173501 | 56 | 355 | 2.6 | 12.2 | 0.00 | 0.00 | 0.00 | 39 | 1013.3 |
| 20260503173131 | 56 | 77 | 4.3 | 14.8 | 0.00 | 0.00 | 0.00 | 38 | 1013.5 |
| 20260503172559 | 56 | 329 | 6.1 | 14.8 | 0.00 | 0.00 | 0.00 | 38 | 1013.4 |
| 20260503172102 | 55 | 302 | 4.3 | 14.8 | 0.00 | 0.00 | 0.00 | 40 | 1013.4 |
| 20260503171559 | 55 | 55 | 4.3 | 11.3 | 0.00 | 0.00 | 0.00 | 40 | 1013.4 |
| 20260503171058 | 55 | 344 | 3.5 | 12.2 | 0.00 | 0.00 | 0.00 | 40 | 1013.5 |
| 20260503170558 | 55 | 47 | 1.7 | 10.4 | 0.00 | 0.00 | 0.00 | 41 | 1013.6 |
| 20260503150548 | 52 | 346 | 3.5 | 11.3 | 0.00 | 0.00 | 0.00 | 43 | 1014.0 |
| 20260503131037 | 50 | 42 | 4.3 | 13.0 | 0.00 | 0.00 | 0.00 | 54 | 1013.6 |
| 20260503130537 | 50 | 24 | 4.3 | 11.3 | 0.00 | 0.00 | 0.00 | 56 | 1013.6 |
| 20260503110526 | 44 | 336 | 1.7 | 7.8 | 0.00 | 0.00 | 0.00 | 73 | 1012.4 |